Weather History for San Angelo, TX

Change the Weather History Date:

Tuesday, November 5, 2013

  Actual Average Record
Temperature  
Mean Temperature 67 °F 60 °F  
Max Temperature 76 °F 72 °F 91 °F (2007)
Min Temperature 57 °F 47 °F 26 °F (1970)
Degree Days  
Heating Degree Days 0 7  
Month to date heating degree days 30 31  
Since 1 July heating degree days 112 122  
Cooling Degree Days 2 1  
Month to date cooling degree days 2 6  
Year to date cooling degree days 2853 2490  
Growing Degree Days 16 (Base 50)    
Moisture  
Dew Point 59 °F    
Average Humidity 77    
Maximum Humidity 90    
Minimum Humidity 64    
Precipitation  
Precipitation 0.00 in 0.06 in 1.06 in (1978)
Month to date precipitation 0.05 0.28  
Year to date precipitation 17.89 19.54  
Snow  
Snow 0.00 in 0.00 in 0.00 in (2002)
Month to date snowfall 0.0 0.0  
Since 1 July snowfall 0.0 0.0  
Snow Depth 0.00 in    
Sea Level Pressure  
Sea Level Pressure 29.92 in    
Wind  
Wind Speed 7 mph (South)    
Max Wind Speed 23 mph    
Max Gust Speed 31 mph    
Visibility 10 miles    
Events      
T = Trace of Precipitation, MM = Missing Value Source: NWS Daily Summary

Daily Weather History Graph

Daily Weather History Graph

Search for Another Location

Airport:

Trip Planner

Search our weather history database for the weather conditions in past years. The results will help you decide how hot, cold, wet, or windy it might be!

Date:

Astronomy

Nov. 05, 2013 Rise Set
Actual Time 7:01 AM CST 5:49 PM CST
Civil Twilight 6:35 AM CST 6:14 PM CST
Nautical Twilight 6:07 AM CST 6:43 PM CST
Astronomical Twilight 5:38 AM CST 7:12 PM CST
Moon 9:12 AM CST (11/5) 7:58 PM CST (11/5)
Length of Visible Light 11h 38m
Length of Day
10h 48m
Waxing Crescent, 7% of the Moon is Illuminated
Nov 5
Waxing Crescent
Nov 9
First Quarter
Nov 17
Full
Nov 25
Last Quarter
Dec 2
New

Hourly Weather History & Observations

Time (CST) Temp. Dew Point Humidity Pressure Visibility Wind Dir Wind Speed Gust Speed Precip Events Conditions
12:16 AM 57.2 °F 55.4 °F 94% 29.98 in 10.0 mi Calm Calm - N/A   Mostly Cloudy
12:51 AM 59.0 °F 55.9 °F 90% 29.94 in 10.0 mi SE 3.5 mph - N/A   Overcast
1:01 AM 60.8 °F 55.4 °F 82% 29.97 in 10.0 mi SE 3.5 mph - N/A   Overcast
1:47 AM 60.8 °F 57.2 °F 88% 29.96 in 10.0 mi SE 6.9 mph - N/A   Overcast
1:51 AM 61.0 °F 57.0 °F 87% 29.93 in 10.0 mi SE 4.6 mph - N/A   Overcast
2:51 AM 61.0 °F 57.0 °F 87% 29.91 in 10.0 mi Calm Calm - N/A   Overcast
3:04 AM 60.8 °F 57.2 °F 88% 29.94 in 10.0 mi Calm Calm - N/A   Overcast
3:25 AM 60.8 °F 57.2 °F 88% 29.94 in 10.0 mi SE 3.5 mph - N/A   Overcast
3:51 AM 61.0 °F 57.0 °F 87% 29.90 in 10.0 mi Calm Calm - N/A   Overcast
4:51 AM 61.0 °F 57.9 °F 90% 29.89 in 10.0 mi Calm Calm - N/A   Overcast
5:51 AM 61.0 °F 57.9 °F 90% 29.90 in 10.0 mi NE 3.5 mph - N/A   Overcast
6:51 AM 63.0 °F 59.0 °F 87% 29.91 in 10.0 mi Calm Calm - N/A   Overcast
7:51 AM 64.0 °F 60.1 °F 87% 29.92 in 10.0 mi Calm Calm - N/A   Overcast
8:11 AM 66.2 °F 60.8 °F 83% 29.96 in 10.0 mi South 4.6 mph - N/A   Overcast
8:51 AM 66.9 °F 62.1 °F 84% 29.93 in 10.0 mi South 10.4 mph 18.4 mph N/A   Overcast
9:16 AM 68.0 °F 62.6 °F 83% 29.97 in 10.0 mi South 13.8 mph - N/A   Overcast
9:51 AM 69.1 °F 62.1 °F 78% 29.94 in 10.0 mi South 12.7 mph 21.9 mph N/A   Overcast
10:51 AM 70.0 °F 62.1 °F 76% 29.93 in 10.0 mi South 15.0 mph 27.6 mph N/A   Overcast
11:51 AM 72.0 °F 61.0 °F 68% 29.91 in 10.0 mi South 15.0 mph 25.3 mph N/A   Overcast
12:51 PM 73.0 °F 61.0 °F 66% 29.88 in 10.0 mi SSW 18.4 mph 26.5 mph N/A   Overcast
12:58 PM 73.4 °F 60.8 °F 65% 29.92 in 10.0 mi SSW 17.3 mph 24.2 mph N/A   Overcast
1:51 PM 73.9 °F 61.0 °F 64% 29.85 in 10.0 mi SSW 16.1 mph 26.5 mph N/A   Overcast
2:51 PM 73.9 °F 61.0 °F 64% 29.84 in 10.0 mi South 12.7 mph - N/A   Overcast
3:51 PM 73.9 °F 61.0 °F 64% 29.85 in 10.0 mi South 11.5 mph - N/A   Mostly Cloudy
4:51 PM 73.0 °F 61.0 °F 66% 29.85 in 10.0 mi South 8.1 mph - N/A   Partly Cloudy
5:51 PM 70.0 °F 61.0 °F 73% 29.87 in 10.0 mi SSE 4.6 mph - N/A   Partly Cloudy
6:51 PM 68.0 °F 60.1 °F 76% 29.90 in 10.0 mi South 5.8 mph - N/A   Clear
7:51 PM 64.0 °F 59.0 °F 84% 29.93 in 10.0 mi Calm Calm - N/A   Clear
8:51 PM 62.1 °F 59.0 °F 90% 29.95 in 10.0 mi South 3.5 mph - N/A   Mostly Cloudy
9:51 PM 62.1 °F 59.0 °F 90% 29.96 in 10.0 mi South 6.9 mph - N/A   Clear
10:51 PM 60.1 °F 57.9 °F 93% 29.98 in 10.0 mi SSW 3.5 mph - N/A   Partly Cloudy
11:51 PM 57.0 °F 55.9 °F 96% 29.97 in 8.0 mi SSW 5.8 mph - N/A   Partly Cloudy